• In Latvia
  • List of Countries
  • For 7 days
  • Water Temperature
  • Satellite Maps
  • Weather Map
  • Weather Widgets
  • user-avatar
    Login

    Hourly Weather Polanowice

    Today, 24 October, Wednesday

    Time Temperature Precipitation Wind Pressure Humidity
    00:00 +7°C° 0.4 mm 9 mps 740 mmHg 74%
    01:00 +6°C° 0.4 mm 9 mps 740 mmHg 73%
    02:00 +6°C° 0.3 mm 9 mps 740 mmHg 72%
    03:00 +6°C° 0.3 mm 9 mps 741 mmHg 71%
    04:00 +5°C° 0.3 mm 9 mps 741 mmHg 70%
    05:00 +5°C° 0.1 mm 8 mps 742 mmHg 68%
    06:00 +4°C° 0.1 mm 7 mps 742 mmHg 67%
    07:00 +4°C° 0.1 mm 7 mps 743 mmHg 65%
    08:00 +4°C° 0 mm 8 mps 744 mmHg 59%
    09:00 +5°C° 0 mm 9 mps 744 mmHg 52%
    10:00 +6°C° 0 mm 10 mps 745 mmHg 46%
    11:00 +6°C° 0 mm 10 mps 746 mmHg 45%
    12:00 +7°C° 0 mm 10 mps 746 mmHg 44%
    13:00 +7°C° 0 mm 10 mps 747 mmHg 43%
    14:00 +7°C° 0 mm 9 mps 747 mmHg 45%
    15:00 +6°C° 0 mm 8 mps 748 mmHg 47%
    16:00 +6°C° 0 mm 7 mps 748 mmHg 49%
    17:00 +5°C° 0 mm 7 mps 749 mmHg 52%
    18:00 +4°C° 0 mm 6 mps 749 mmHg 55%
    19:00 +4°C° 0 mm 6 mps 750 mmHg 58%
    20:00 +4°C° 0 mm 6 mps 750 mmHg 60%
    21:00 +3°C° 0 mm 5 mps 751 mmHg 62%
    22:00 +3°C° 0 mm 5 mps 751 mmHg 64%
    23:00 +3°C° 0 mm 5 mps 751 mmHg 67%

    Tomorrow, 25 October, Thursday

    Time Temperature Precipitation Wind Pressure Humidity
    00:00 +3°C° 0 mm 5 mps 751 mmHg 70%
    01:00 +3°C° 0 mm 5 mps 751 mmHg 73%
    02:00 +3°C° 0 mm 5 mps 750 mmHg 75%
    03:00 +2°C° 0 mm 5 mps 750 mmHg 77%
    04:00 +2°C° 0 mm 5 mps 749 mmHg 78%
    05:00 +3°C° 0.8 mm 5 mps 748 mmHg 82%
    06:00 +5°C° 0.8 mm 5 mps 747 mmHg 86%
    07:00 +4°C° 0.8 mm 6 mps 746 mmHg 90%
    08:00 +6°C° 0.7 mm 7 mps 746 mmHg 89%
    09:00 +7°C° 0.7 mm 8 mps 745 mmHg 87%
    10:00 +10°C° 0.7 mm 9 mps 745 mmHg 86%
    11:00 +10°C° 0.3 mm 9 mps 744 mmHg 83%
    12:00 +10°C° 0.3 mm 9 mps 744 mmHg 80%
    13:00 +10°C° 0.3 mm 9 mps 744 mmHg 77%
    14:00 +10°C° 0.1 mm 9 mps 744 mmHg 75%
    15:00 +8°C° 0.1 mm 9 mps 745 mmHg 72%
    16:00 +9°C° 0.1 mm 8 mps 745 mmHg 69%
    17:00 +9°C° 0 mm 8 mps 745 mmHg 71%
    18:00 +8°C° 0 mm 7 mps 746 mmHg 73%
    19:00 +6°C° 0 mm 7 mps 746 mmHg 75%
    20:00 +6°C° 0 mm 7 mps 746 mmHg 77%
    21:00 +7°C° 0 mm 6 mps 747 mmHg 78%
    22:00 +5°C° 0 mm 6 mps 747 mmHg 80%
    23:00 +5°C° 0 mm 6 mps 747 mmHg 81%

    Day after tomorrow, 26 October, Friday

    Time Temperature Precipitation Wind Pressure Humidity
    00:00 +5°C° 0 mm 6 mps 747 mmHg 82%
    01:00 +5°C° 0 mm 6 mps 747 mmHg 83%
    02:00 +5°C° 0 mm 6 mps 747 mmHg 83%
    03:00 +5°C° 0 mm 6 mps 747 mmHg 84%
    04:00 +5°C° 0 mm 6 mps 747 mmHg 84%
    05:00 +6°C° 0 mm 5 mps 747 mmHg 84%
    06:00 +6°C° 0 mm 5 mps 747 mmHg 84%
    07:00 +6°C° 0 mm 5 mps 747 mmHg 84%
    08:00 +7°C° 0 mm 5 mps 747 mmHg 80%
    09:00 +7°C° 0 mm 5 mps 747 mmHg 76%
    10:00 +8°C° 0 mm 5 mps 746 mmHg 72%
    11:00 +9°C° 0.1 mm 6 mps 746 mmHg 73%
    12:00 +9°C° 0.1 mm 6 mps 745 mmHg 74%
    13:00 +10°C° 0.1 mm 6 mps 745 mmHg 75%
    14:00 +10°C° 0.2 mm 6 mps 744 mmHg 76%
    15:00 +10°C° 0.2 mm 6 mps 743 mmHg 78%
    16:00 +10°C° 0.2 mm 5 mps 743 mmHg 79%
    17:00 +10°C° 0.1 mm 6 mps 742 mmHg 78%
    18:00 +10°C° 0.1 mm 6 mps 742 mmHg 77%
    19:00 +9°C° 0.1 mm 7 mps 742 mmHg 77%
    20:00 +9°C° 0 mm 7 mps 742 mmHg 76%
    21:00 +9°C° 0 mm 8 mps 741 mmHg 76%
    22:00 +7°C° 0 mm 8 mps 741 mmHg 75%
    23:00 +7°C° 0.1 mm 8 mps 741 mmHg 74%

    27 October, Saturday

    Time Temperature Precipitation Wind Pressure Humidity
    00:00 +6°C° 0.1 mm 8 mps 741 mmHg 72%
    01:00 +6°C° 0.1 mm 8 mps 741 mmHg 71%
    02:00 +6°C° 0 mm 9 mps 742 mmHg 72%
    03:00 +5°C° 0 mm 9 mps 742 mmHg 72%
    04:00 +5°C° 0 mm 10 mps 742 mmHg 73%
    05:00 +5°C° 0 mm 9 mps 743 mmHg 75%
    06:00 +4°C° 0 mm 8 mps 744 mmHg 76%
    07:00 +4°C° 0 mm 7 mps 744 mmHg 78%
    08:00 +4°C° 0 mm 7 mps 745 mmHg 75%
    09:00 +4°C° 0 mm 7 mps 746 mmHg 73%
    10:00 +5°C° 0 mm 7 mps 747 mmHg 70%
    11:00 +5°C° 0 mm 7 mps 747 mmHg 68%
    12:00 +5°C° 0 mm 6 mps 747 mmHg 66%
    13:00 +7°C° 0 mm 5 mps 748 mmHg 64%
    14:00 +6°C° 0 mm 5 mps 748 mmHg 64%
    15:00 +6°C° 0 mm 4 mps 749 mmHg 64%
    16:00 +7°C° 0 mm 3 mps 749 mmHg 65%
    17:00 +5°C° 0 mm 3 mps 750 mmHg 67%
    18:00 +6°C° 0 mm 2 mps 751 mmHg 70%
    19:00 +5°C° 0 mm 2 mps 751 mmHg 73%
    20:00 +5°C° 0 mm 2 mps 751 mmHg 74%
    21:00 +4°C° 0 mm 2 mps 752 mmHg 74%
    22:00 +4°C° 0 mm 2 mps 752 mmHg 75%
    23:00 +5°C° 0 mm 1 mps 752 mmHg 76%

    28 October, Sunday

    Time Temperature Precipitation Wind Pressure Humidity
    00:00 +5°C° 0 mm 1 mps 753 mmHg 76%
    01:00 +4°C° 0 mm 1 mps 753 mmHg 77%
    02:00 +4°C° 0 mm 1 mps 753 mmHg 77%
    03:00 +4°C° 0 mm 1 mps 753 mmHg 78%
    04:00 +3°C° 0 mm 2 mps 754 mmHg 79%
    05:00 +3°C° 0 mm 2 mps 754 mmHg 79%
    06:00 +3°C° 0 mm 2 mps 754 mmHg 79%
    07:00 +3°C° 0 mm 2 mps 755 mmHg 79%
    08:00 +3°C° 0 mm 3 mps 755 mmHg 75%
    09:00 +4°C° 0 mm 3 mps 755 mmHg 72%
    10:00 +4°C° 0 mm 4 mps 755 mmHg 68%
    11:00 +5°C° 0 mm 4 mps 755 mmHg 66%
    12:00 +5°C° 0 mm 4 mps 755 mmHg 64%
    13:00 +6°C° 0 mm 5 mps 755 mmHg 62%
    14:00 +6°C° 0.1 mm 5 mps 755 mmHg 63%
    15:00 +5°C° 0.1 mm 5 mps 755 mmHg 64%
    16:00 +5°C° 0.1 mm 5 mps 755 mmHg 65%
    17:00 +5°C° 0.2 mm 5 mps 755 mmHg 66%
    18:00 +5°C° 0.2 mm 5 mps 755 mmHg 67%
    19:00 +3°C° 0.2 mm 6 mps 755 mmHg 68%
    20:00 +3°C° 0.3 mm 6 mps 754 mmHg 69%
    21:00 +3°C° 0.3 mm 7 mps 754 mmHg 71%
    22:00 +3°C° 0.3 mm 7 mps 754 mmHg 72%
    23:00 +2°C° 0.6 mm 8 mps 753 mmHg 73%

    29 October, Monday

    Time Temperature Precipitation Wind Pressure Humidity
    00:00 +2°C° 0.6 mm 9 mps 753 mmHg 74%
    01:00 +2°C° 0.6 mm 9 mps 752 mmHg 75%
    02:00 +2°C° 1.5 mm 9 mps 752 mmHg 76%
    03:00 +2°C° 1.5 mm 10 mps 751 mmHg 78%
    04:00 +1°C° 1.5 mm 10 mps 751 mmHg 79%
    05:00 +1°C° 1.4 mm 10 mps 750 mmHg 80%
    06:00 +1°C° 1.4 mm 10 mps 749 mmHg 81%
    07:00 +1°C° 1.4 mm 10 mps 749 mmHg 81%
    08:00 +1°C° 2.1 mm 10 mps 748 mmHg 82%
    09:00 +1°C° 2.1 mm 10 mps 748 mmHg 84%
    10:00 +1°C° 2.1 mm 9 mps 747 mmHg 85%
    11:00 +2°C° 0.6 mm 9 mps 747 mmHg 85%
    12:00 +2°C° 0.6 mm 9 mps 747 mmHg 86%
    13:00 +2°C° 0.6 mm 8 mps 746 mmHg 86%
    14:00 +2°C° 0.7 mm 8 mps 746 mmHg 87%
    15:00 +2°C° 0.7 mm 8 mps 745 mmHg 88%
    16:00 +3°C° 0.7 mm 7 mps 745 mmHg 89%
    17:00 +3°C° 0.1 mm 7 mps 745 mmHg 89%
    18:00 +3°C° 0.1 mm 7 mps 745 mmHg 90%
    19:00 +3°C° 0.1 mm 6 mps 745 mmHg 90%
    20:00 +4°C° 0 mm 6 mps 745 mmHg 90%
    21:00 +4°C° 0 mm 6 mps 745 mmHg 91%
    22:00 +4°C° 0 mm 6 mps 745 mmHg 91%
    23:00 +4°C° 0 mm 6 mps 745 mmHg 92%

    30 October, Tuesday

    Time Temperature Precipitation Wind Pressure Humidity
    00:00 +4°C° 0 mm 6 mps 745 mmHg 92%
    01:00 +5°C° 0 mm 6 mps 744 mmHg 93%
    02:00 +5°C° 0.1 mm 6 mps 744 mmHg 93%
    03:00 +7°C° 0.1 mm 6 mps 744 mmHg 94%
    04:00 +7°C° 0.1 mm 6 mps 743 mmHg 94%
    05:00 +8°C° 0.2 mm 6 mps 743 mmHg 94%
    06:00 +8°C° 0.2 mm 7 mps 743 mmHg 94%
    07:00 +9°C° 0.2 mm 7 mps 742 mmHg 94%
    08:00 +10°C° 0.1 mm 7 mps 742 mmHg 91%
    09:00 +11°C° 0.1 mm 7 mps 742 mmHg 88%
    10:00 +11°C° 0.1 mm 6 mps 742 mmHg 86%
    11:00 +13°C° 0 mm 6 mps 743 mmHg 83%
    12:00 +14°C° 0 mm 6 mps 743 mmHg 80%
    13:00 +15°C° 0 mm 5 mps 743 mmHg 76%
    14:00 +14°C° 0 mm 4 mps 743 mmHg 79%
    15:00 +13°C° 0 mm 3 mps 744 mmHg 83%
    16:00 +13°C° 0 mm 3 mps 744 mmHg 86%
    17:00 +13°C° 0.4 mm 2 mps 744 mmHg 87%
    18:00 +12°C° 0.4 mm 2 mps 745 mmHg 89%
    19:00 +12°C° 0.4 mm 2 mps 745 mmHg 90%
    20:00 +10°C° 0.6 mm 3 mps 745 mmHg 88%
    21:00 +10°C° 0.6 mm 4 mps 746 mmHg 87%
    22:00 +8°C° 0.6 mm 4 mps 746 mmHg 85%
    23:00 +8°C° 0.5 mm 4 mps 746 mmHg 84%
    Show more